Wind_Speed
31 33 34 35 35 36 37 37 37 38 40 40 41 42 42 42 41 40 39 39 40 42 44 45 47 50 52 54 55 57 58 58 58 58 58 57 57 57 58 58 58 58 58 58
34 35 37 38 38 38 39 39 39 39 40 40 41 42 41 39 39 39 40 41 43 45 47 49 51 53 55 57 57 58 57 57 57 56 56 56 56 57 56 56 56 56 55 55
36 37 38 40 39 40 40 41 41 41 42 43 41 39 39 39 40 41 43 45 47 48 50 52 54 55 55 55 55 55 55 55 55 54 54 55 55 55 54 53 53 52 52 52
36 37 38 38 38 38 38 38 39 40 40 39 39 38 38 38 40 41 42 44 45 47 49 51 52 53 53 54 53 53 53 53 53 53 52 52 51 50 50 49 49 49 49 49
32 34 36 36 36 35 35 34 34 34 34 35 35 35 36 36 37 39 41 43 45 47 49 50 51 51 51 51 51 51 50 50 50 49 48 48 47 46 46 46 46 46 46 46
26 27 29 30 30 31 32 31 31 32 32 34 35 35 36 38 39 41 43 44 46 47 48 48 48 48 48 48 48 48 47 47 46 45 44 44 43 43 43 43 43 43 43 44
21 22 24 24 25 26 26 26 28 30 32 33 34 36 37 38 40 41 42 43 43 44 44 45 45 45 45 45 44 44 43 42 41 41 40 40 40 40 40 41 41 42 42 41
18 19 19 19 21 23 23 24 25 27 28 29 31 32 34 35 36 37 38 39 40 40 41 41 41 41 40 40 39 39 38 37 37 37 37 38 38 39 39 39 39 39 38 37
15 16 16 17 18 20 21 22 23 24 25 26 27 29 30 31 32 33 34 35 36 37 37 37 36 36 35 34 34 34 34 34 35 36 36 37 37 37 37 36 35 34 32 30
14 14 16 16 16 17 18 19 20 22 23 25 26 27 28 29 30 31 31 31 31 31 31 30 30 30 29 30 31 32 33 34 35 35 36 36 35 34 33 31 29 27 25 23
13 14 15 16 17 17 18 19 20 22 23 24 25 26 26 26 26 26 26 26 25 25 25 25 25 26 27 29 30 32 33 34 34 34 34 33 31 29 27 25 22 20 18 17
13 14 15 16 17 18 19 19 20 21 21 21 22 21 21 21 21 20 20 20 20 20 21 22 24 25 27 29 30 32 32 32 32 31 30 28 25 23 20 18 16 15 14 13
13 14 15 15 16 17 17 18 17 17 16 16 16 16 16 15 15 15 14 15 15 17 19 21 24 26 28 29 31 31 31 30 28 26 24 21 19 17 15 13 12 11 10 10
13 14 14 14 14 14 14 13 12 11 11 11 11 10 10 10 9 10 11 12 15 17 20 23 25 27 28 30 30 29 27 25 23 20 18 15 13 12 10 9 8 8 7 7
12 12 12 12 12 11 10 9 7 6 6 5 5 5 5 5 6 8 11 13 16 19 21 24 26 28 29 28 27 25 22 20 18 15 13 11 9 7 6 5 5 5 5 6
10 10 9 8 7 5 4 3 2 1 1 1 2 2 3 5 7 10 13 15 18 20 22 25 26 27 27 25 23 21 19 16 14 11 9 7 6 4 3 3 4 5 5 7
8 7 6 4 2 0 1 2 3 2 2 3 4 5 6 8 10 12 15 17 19 21 24 26 27 26 25 23 21 19 16 14 12 9 7 6 5 5 5 5 6 7 8 10
5 4 3 1 1 2 3 3 3 3 4 6 6 7 9 10 12 14 16 18 21 23 25 26 26 25 24 23 21 19 16 14 12 10 9 8 8 8 8 9 9 11 12 14
3 1 0 2 3 4 4 5 5 6 7 8 9 9 10 12 14 15 17 20 23 24 25 26 26 25 25 24 22 20 18 16 15 13 13 13 13 13 13 13 13 14 15 15
1 1 3 4 5 6 6 6 7 9 9 9 10 10 12 13 15 17 19 21 24 25 25 25 26 26 26 25 24 23 22 21 20 18 18 17 17 16 16 16 17 16 16 15
3 3 4 5 6 6 7 8 9 10 10 10 10 11 12 14 16 18 19 22 24 25 26 26 27 27 27 27 26 26 25 24 23 23 22 21 20 19 18 17 17 16 15 14
4 5 6 7 7 7 7 8 9 10 10 10 10 11 12 14 16 18 20 22 24 25 27 28 29 29 29 29 28 27 27 26 25 24 23 22 20 19 17 16 15 14 13 12
6 6 7 8 8 8 8 9 10 10 10 10 10 11 12 14 16 17 19 21 23 25 26 28 29 30 31 32 32 30 29 27 26 25 23 22 20 18 16 15 14 13 12 12
8 8 8 9 9 9 10 10 10 10 10 10 10 10 12 13 15 16 18 20 22 24 25 27 28 29 30 31 32 32 31 30 28 27 25 23 21 18 16 14 13 12 12 12
10 10 10 10 10 11 11 11 11 11 11 10 9 10 11 12 13 15 17 19 21 22 23 25 26 28 28 29 30 31 31 30 29 28 27 26 24 21 18 15 14 13 13 13
12 11 11 11 12 12 12 12 12 12 11 10 10 9 10 10 12 14 16 18 19 21 22 23 25 26 27 28 29 30 30 30 29 29 28 28 27 26 24 21 19 17 16 16
13 13 12 12 12 13 13 13 13 13 12 11 10 9 9 9 10 12 14 16 17 18 20 21 22 24 25 26 27 28 29 30 30 29 29 29 29 29 29 27 26 24 22 21
Wind_Direction
248 245 244 246 247 248 249 249 251 252 254 255 257 259 261 261 261 264 268 273 278 282 285 287 289 290 291 293 294 295 296 297 298 299 299 298 298 298 297 297 296 296 295 295
254 252 249 249 250 252 253 253 255 256 258 259 260 261 261 264 267 269 273 278 281 284 287 289 290 291 293 294 296 297 297 297 298 298 297 297 296 296 296 296 295 295 295 295
259 257 257 255 253 253 253 254 257 261 263 265 266 269 271 274 276 278 281 284 286 287 289 291 292 294 295 296 297 297 297 297 297 296 296 296 296 296 296 296 295 295 295 295
262 262 261 261 260 261 262 263 264 266 269 273 276 277 279 280 281 282 283 285 286 288 290 292 294 295 295 296 297 297 296 296 296 296 296 296 296 295 295 295 295 295 295 296
265 265 265 266 268 269 270 270 271 272 274 276 277 278 279 279 280 281 283 286 288 290 292 293 294 295 295 296 296 296 295 295 295 296 295 295 295 294 294 294 295 295 296 296
270 269 269 267 267 268 270 271 270 270 270 271 273 274 276 278 280 283 285 287 289 290 291 292 293 294 295 295 295 295 295 295 295 295 294 294 294 294 295 295 296 296 296 296
274 273 271 269 268 267 267 267 267 268 269 271 273 275 278 280 282 284 286 288 289 290 291 293 293 294 295 295 295 296 296 295 295 294 295 295 295 296 296 296 296 296 296 297
274 271 268 267 266 264 265 266 267 268 269 272 274 276 278 280 283 285 286 288 289 291 292 293 293 294 294 295 295 296 296 296 296 296 296 296 296 296 296 296 296 297 297 298
274 271 269 267 265 265 266 267 268 269 271 273 275 278 279 282 284 286 288 289 290 291 292 293 294 295 296 297 298 298 298 298 298 298 298 298 298 298 298 298 299 299 300 301
272 268 266 266 266 266 267 269 271 272 275 277 278 280 282 284 286 288 290 291 292 292 294 295 297 298 299 300 301 301 301 301 301 300 300 300 300 300 301 301 302 302 304 305
275 271 270 270 270 271 272 273 275 276 278 280 282 284 286 287 288 290 291 293 295 297 299 301 303 304 304 305 305 305 305 304 304 303 302 303 303 303 304 303 304 305 307 309
282 279 278 276 275 274 274 275 278 279 280 282 284 285 287 289 292 294 297 299 301 304 306 308 309 310 310 310 310 309 308 307 307 305 305 305 305 306 306 306 307 309 312 315
289 286 283 280 279 279 279 280 280 281 282 284 284 287 291 294 298 302 305 309 313 315 316 317 317 316 316 315 314 313 311 310 309 308 307 307 308 309 308 309 313 317 322 328
294 294 290 286 284 283 281 280 280 282 285 287 289 294 299 302 307 314 321 326 328 328 326 325 324 323 322 320 319 318 316 315 314 313 312 311 311 311 312 315 322 331 340 350
299 297 293 290 289 285 279 276 276 282 288 299 305 313 322 331 338 344 345 343 340 337 335 333 332 331 330 329 327 326 325 324 323 321 321 319 320 323 325 330 343 358 12 26
302 299 298 299 300 291 268 257 249 235 304 353 13 21 27 22 14 6 359 354 351 348 346 345 343 342 342 341 340 339 338 337 337 336 337 342 348 357 9 26 37 44 51 65
306 303 303 307 314 131 154 149 135 120 103 83 82 73 57 39 26 17 10 6 3 1 359 358 357 357 356 356 356 356 355 356 358 2 12 24 40 58 70 71 73 76 82 88
309 310 310 316 111 123 127 130 123 111 108 101 92 78 59 44 33 26 21 18 15 12 11 11 11 11 11 11 10 11 14 18 26 37 49 60 69 79 85 87 90 93 96 99
305 324 141 134 128 129 129 131 128 120 114 104 92 76 61 48 40 34 30 27 23 21 20 21 21 21 21 22 24 28 33 41 49 58 66 73 79 85 90 92 95 97 99 100
242 146 137 134 130 126 128 130 128 123 114 104 90 76 63 52 44 40 37 33 30 29 28 28 28 29 32 35 39 43 49 55 61 67 72 77 81 86 90 93 94 96 97 94
193 166 151 146 142 139 136 134 132 125 116 105 91 77 65 56 50 46 43 40 38 37 37 37 37 38 40 43 47 51 55 60 64 67 71 75 79 84 87 90 92 93 92 89
188 173 165 160 156 153 147 143 138 130 122 109 94 79 68 61 56 52 49 48 46 44 44 44 45 46 48 49 51 54 57 60 63 65 68 70 74 78 81 84 87 89 89 87
185 176 173 169 165 161 156 151 145 137 128 114 98 84 73 67 62 58 55 54 52 50 49 50 50 51 52 53 55 56 58 60 61 63 63 64 67 70 74 78 82 85 86 85
188 182 177 174 169 164 161 157 151 144 135 121 107 91 80 73 69 64 61 59 56 54 53 53 53 54 54 54 55 56 57 58 59 59 59 59 60 62 67 72 78 82 85 86
191 185 181 178 175 170 167 163 158 152 144 132 118 103 90 80 73 69 66 63 61 58 56 55 54 54 55 55 55 55 55 55 56 56 57 56 56 57 61 67 74 81 86 88
192 189 187 185 181 177 174 172 167 161 154 145 131 116 101 90 82 77 72 69 66 62 59 57 56 56 56 56 55 54 54 53 54 55 56 57 57 57 60 66 73 80 85 89
192 190 189 187 186 183 181 179 175 171 165 157 146 132 118 105 93 86 80 75 70 65 62 59 58 57 56 56 55 54 53 53 54 56 57 58 59 60 63 67 72 77 82 84
Height
5738 5740 5742 5744 5746 5748 5750 5751 5753 5755 5756 5756 5757 5757 5757 5756 5756 5756 5756 5755 5754 5753 5752 5750 5748 5746 5743 5739 5736 5732 5728 5724 5719 5714 5710 5705 5700 5695 5690 5686 5681 5676 5670 5665
5730 5732 5734 5736 5738 5740 5741 5742 5744 5746 5747 5747 5747 5747 5747 5746 5745 5745 5745 5745 5744 5742 5740 5738 5736 5733 5730 5726 5723 5719 5715 5710 5706 5701 5696 5691 5686 5681 5676 5671 5666 5661 5656 5651
5721 5722 5724 5727 5730 5731 5733 5734 5735 5736 5738 5738 5737 5737 5736 5736 5735 5735 5735 5734 5733 5731 5728 5726 5723 5720 5716 5712 5709 5705 5700 5696 5692 5687 5682 5677 5672 5667 5662 5657 5652 5647 5642 5637
5712 5714 5715 5720 5720 5722 5723 5724 5725 5727 5728 5727 5727 5727 5726 5726 5725 5725 5724 5723 5721 5718 5716 5713 5710 5706 5703 5699 5695 5691 5687 5682 5678 5673 5668 5663 5658 5653 5648 5644 5639 5635 5630 5626
5704 5705 5706 5710 5711 5712 5713 5715 5717 5717 5718 5718 5718 5717 5717 5716 5715 5715 5713 5712 5709 5707 5704 5701 5697 5694 5690 5686 5681 5677 5673 5668 5664 5659 5654 5649 5645 5640 5636 5632 5627 5623 5618 5614
5696 5697 5699 5702 5703 5703 5706 5707 5708 5708 5709 5709 5709 5710 5709 5708 5706 5704 5703 5701 5698 5695 5692 5689 5685 5681 5677 5673 5668 5664 5660 5655 5650 5646 5641 5637 5633 5628 5624 5620 5616 5612 5608 5603
5690 5691 5692 5694 5695 5696 5699 5700 5700 5699 5700 5700 5700 5700 5699 5698 5696 5694 5692 5690 5687 5684 5681 5677 5673 5669 5665 5660 5656 5651 5647 5643 5638 5634 5630 5625 5621 5617 5613 5609 5605 5601 5597 5593
5685 5686 5688 5687 5688 5690 5691 5691 5692 5692 5692 5692 5692 5691 5690 5689 5687 5685 5683 5680 5677 5674 5670 5666 5662 5658 5654 5649 5645 5640 5636 5632 5627 5623 5619 5615 5611 5607 5603 5599 5595 5591 5586 5582
5682 5684 5682 5682 5683 5684 5684 5685 5685 5685 5685 5685 5684 5683 5682 5681 5679 5677 5674 5671 5668 5664 5661 5657 5652 5648 5644 5639 5635 5630 5626 5622 5617 5613 5609 5604 5600 5596 5592 5588 5585 5581 5577 5574
5677 5678 5678 5678 5678 5678 5679 5679 5679 5679 5678 5678 5677 5676 5675 5673 5671 5668 5666 5662 5659 5656 5652 5648 5644 5639 5635 5631 5626 5621 5617 5612 5607 5603 5598 5594 5590 5586 5583 5579 5576 5573 5570 5567
5674 5674 5674 5674 5674 5674 5673 5673 5673 5672 5672 5671 5670 5669 5667 5665 5663 5661 5658 5655 5652 5648 5645 5641 5637 5632 5628 5623 5618 5613 5608 5603 5598 5593 5589 5585 5581 5578 5575 5572 5570 5567 5565 5563
5670 5670 5670 5669 5669 5668 5668 5667 5667 5666 5665 5664 5663 5662 5660 5659 5657 5655 5652 5649 5646 5643 5639 5635 5631 5626 5621 5615 5610 5605 5599 5594 5589 5585 5581 5577 5574 5571 5569 5567 5565 5563 5561 5559
5666 5665 5665 5664 5664 5663 5662 5662 5661 5660 5660 5659 5658 5657 5656 5654 5652 5650 5648 5645 5642 5639 5635 5630 5625 5620 5614 5608 5602 5597 5591 5586 5581 5577 5574 5571 5569 5567 5565 5563 5561 5560 5558 5557
5662 5661 5660 5659 5659 5658 5657 5657 5656 5656 5656 5655 5654 5653 5652 5651 5650 5648 5646 5643 5639 5635 5631 5626 5620 5614 5608 5601 5595 5589 5584 5579 5575 5571 5568 5566 5564 5563 5562 5560 5559 5558 5557 5556
5659 5658 5657 5655 5655 5654 5653 5653 5653 5653 5653 5653 5652 5652 5651 5650 5649 5647 5644 5641 5637 5633 5628 5622 5616 5609 5602 5595 5588 5583 5578 5573 5570 5567 5564 5563 5561 5560 5560 5559 5558 5557 5557 5556
5656 5655 5653 5652 5652 5651 5651 5651 5652 5652 5652 5652 5652 5652 5651 5650 5649 5646 5643 5640 5635 5630 5625 5618 5611 5604 5597 5590 5584 5578 5574 5570 5566 5564 5562 5560 5560 5559 5559 5558 5558 5558 5557 5557
5654 5653 5652 5651 5651 5650 5650 5651 5652 5652 5652 5653 5653 5652 5652 5651 5649 5646 5643 5639 5634 5629 5623 5616 5608 5601 5594 5588 5582 5577 5572 5568 5565 5563 5561 5560 5560 5559 5559 5559 5559 5559 5559 5559
5653 5652 5651 5651 5651 5651 5651 5652 5652 5653 5653 5654 5654 5654 5653 5651 5649 5646 5643 5639 5634 5628 5622 5615 5608 5601 5595 5588 5583 5577 5573 5569 5566 5564 5563 5562 5561 5561 5561 5561 5562 5562 5562 5563
5652 5651 5651 5651 5651 5652 5652 5653 5654 5654 5655 5655 5655 5655 5654 5653 5650 5647 5644 5640 5635 5629 5623 5617 5611 5604 5598 5591 5585 5580 5575 5572 5569 5567 5566 5565 5565 5565 5565 5565 5565 5566 5567 5567
5652 5652 5652 5652 5652 5653 5654 5654 5655 5656 5657 5657 5657 5657 5656 5654 5652 5649 5646 5642 5637 5631 5626 5620 5614 5608 5602 5596 5590 5585 5581 5577 5575 5573 5571 5570 5570 5569 5569 5570 5570 5571 5571 5572
5652 5652 5652 5653 5654 5654 5655 5656 5657 5658 5659 5659 5660 5659 5658 5656 5654 5651 5648 5644 5640 5635 5630 5625 5619 5613 5607 5602 5597 5592 5588 5585 5582 5580 5578 5577 5576 5575 5575 5575 5575 5576 5576 5576
5651 5652 5653 5654 5655 5656 5657 5658 5659 5660 5661 5662 5662 5661 5660 5659 5657 5655 5652 5648 5644 5640 5635 5630 5625 5619 5614 5609 5604 5600 5596 5593 5590 5588 5586 5584 5583 5582 5581 5581 5580 5580 5580 5580
5651 5652 5653 5654 5656 5657 5658 5659 5661 5662 5663 5664 5664 5664 5663 5662 5660 5658 5656 5652 5649 5645 5641 5636 5632 5627 5622 5617 5613 5608 5604 5601 5598 5595 5593 5590 5589 5587 5586 5585 5584 5584 5584 5584
5651 5652 5654 5655 5656 5657 5659 5661 5662 5663 5665 5665 5666 5666 5666 5665 5663 5662 5659 5657 5653 5650 5647 5643 5639 5635 5630 5626 5621 5617 5613 5609 5605 5602 5599 5597 5594 5592 5590 5589 5588 5587 5587 5587
5650 5652 5654 5655 5656 5658 5660 5662 5663 5665 5666 5667 5668 5668 5668 5668 5667 5665 5663 5661 5658 5656 5653 5649 5646 5642 5638 5634 5630 5625 5621 5617 5613 5609 5606 5603 5599 5596 5594 5592 5591 5590 5590 5591
5650 5651 5653 5655 5657 5658 5660 5662 5664 5666 5667 5669 5670 5670 5670 5670 5670 5669 5667 5665 5663 5661 5658 5655 5652 5649 5645 5641 5637 5633 5629 5625 5621 5617 5613 5610 5606 5602 5599 5596 5595 5594 5594 5595
5649 5651 5653 5655 5656 5658 5660 5662 5664 5666 5668 5670 5671 5672 5672 5673 5673 5672 5671 5669 5667 5665 5663 5661 5659 5655 5652 5649 5645 5641 5637 5633 5629 5625 5621 5618 5614 5610 5607 5604 5602 5601 5600 5600